Zurück zum Katalog

FENGYUN 1C DEB

AktivSSO
NORAD 36716·DEBRIS·🇨🇳 China

Gestartet May 10, 1999 von Taiyuan Satellite Launch Center

Loading…

Nächste Überflüge (nächste 24 Stunden)

TLE

AktuellSource: Space-Track

Epoche: Sep 13, 2026, 12:14 UTC

1 36716U 99025EAN 26256.51003544  .00000135  00000-0  13706-3 0  9990
2 36716  99.2279 177.7971 0147900 209.1004 150.1851 13.88568149667440

Verfolge FENGYUN 1C DEB in Echtzeit mit AllMySat

Download on the App Store